Overview Statistics Trail Chart Weather Telemetry Raw packets
 

This is the latest recevied weather packets stored in our database for station/object KB1RMA-4. If no packets are shown the sender has not sent any weather packets the latest 10 day(s).

<< 85 86 87 88 89 90 91 >>
Time Temp. Humidity Pressure Rain* Wind** Luminosity Snow
1788007687 17.78° C 65% 1022.6 hPa 0 mm - 51 W/m² -
1788007383 18.33° C 64% 1022.6 hPa 0 mm - 53 W/m² -
1788007082 17.78° C 65% 1022.4 hPa 0 mm - 60 W/m² -
1788006781 17.78° C 64% 1022.5 hPa 0 mm - 72 W/m² -
1788006487 17.78° C 65% 1022.5 hPa 0 mm - 71 W/m² -
1788006170 17.78° C 66% 1022.3 hPa 0 mm - 85 W/m² -
1788005869 17.22° C 66% 1022.4 hPa 0 mm - 72 W/m² -
1788005564 17.22° C 66% 1022.3 hPa 0 mm - 57 W/m² -
1788005263 17.22° C 66% 1022.2 hPa 0 mm - 52 W/m² -
1788004962 17.22° C 66% 1022.3 hPa 0 mm - 44 W/m² -
1788004661 16.67° C 66% 1022.1 hPa 0 mm - 43 W/m² -
1788004357 16.67° C 67% 1022.3 hPa 0 mm - 42 W/m² -
1788004056 16.67° C 67% 1022.1 hPa 0 mm - 42 W/m² -
1788003755 16.67° C 66% 1022.1 hPa 0 mm - 48 W/m² -
1788003451 16.67° C 67% 1022.1 hPa 0 mm - 51 W/m² -
1788003150 16.67° C 67% 1022.1 hPa 0 mm - 44 W/m² -
1788002850 16.67° C 67% 1022 hPa 0 mm - 46 W/m² -
1788002546 16.11° C 67% 1021.7 hPa 0 mm - 47 W/m² -
1788002242 16.11° C 68% 1021.9 hPa 0 mm - 34 W/m² -
1788001941 16.11° C 67% 1022 hPa 0 mm - 33 W/m² -
1788001637 16.11° C 68% 1021.8 hPa 0 mm - 39 W/m² -
1788001336 16.11° C 68% 1021.8 hPa 0 mm - 40 W/m² -
1788001031 16.11° C 68% 1021.7 hPa 0 mm - 30 W/m² -
1788000726 16.11° C 68% 1021.8 hPa 0 mm - 26 W/m² -
1788000422 15.56° C 68% 1021.5 hPa 0 mm - 22 W/m² -

* Rain latest hour (hover to see other rain measurements)
** Current wind speed in m/s (hover to see current wind gust speed)